Flag for China Weather past 2 weeks in Shanghai, Shanghai Municipality, China

Now
97 °F

Sunny.


Feels Like: 105 °F
Forecast: 84 / 98 °F
Wind: 8 mph from Southwest

Location: Shanghai Hongqiao Airport

Current Time: Jul 28, 2015 at 6:51:51 PM

Latest Report: Jul 28, 2015 at 6:00 PM


Visibility: 10 mi

Pressure: 29.71 "Hg

Humidity: 44%

Dew point: 72 °F

Location of ShanghaiLocation

Historic Weather in Shanghai — Graph

°F

Shanghai temperature yesterday

Maximum temperature yesterday: 100 °F (at 2:30 PM)
Minimum temperature yesterday: 84 °F (at 3:00 AM)
Average temperature yesterday: 92 °F

Past Weeks' High & Low Weather Summary

 TemperatureHumidityPressure
High100 °F (Jul 27, 2:30 PM)94% (Jul 14, 4:30 AM)29.80 "Hg (Jul 14, 4:30 AM)
Low75 °F (Jul 18, 3:00 AM)42% (Jul 28, 2:30 PM)29.53 "Hg (Jul 13, 5:00 PM)
Average84 °F76%29.65 "Hg
* Reported Jul 13 5:00 PM — Jul 28 5:30 PM, Shanghai, Weather by CustomWeather, © 2015

Note: Actual official high and low records may vary slightly from our data, if they occured in-between our weather recording intervals... More about our weather records

Advertising

Shanghai weather history for previous 24 hours

 ConditionsComfort  
Time TempWeatherWind HumidityBarometerVisibility
5:30 PM
Tue, Jul 28
99 °FSunny.8 mph42%29.71 "Hg10 mi
5:00 PM99 °FPassing clouds.6 mph44%29.71 "HgN/A
4:30 PM99 °FPassing clouds.6 mph44%29.71 "HgN/A
4:00 PM100 °FPassing clouds.6 mph45%29.74 "HgN/A
3:30 PM100 °FSunny.3 mph42%29.74 "Hg10 mi
3:00 PM100 °FPassing clouds.8 mph42%29.74 "HgN/A
2:30 PM100 °FPassing clouds.6 mph42%29.74 "HgN/A
2:00 PM99 °FPassing clouds.6 mph47%29.74 "HgN/A
1:30 PM99 °FPassing clouds.8 mph47%29.74 "HgN/A
1:00 PM99 °FPassing clouds.10 mph44%29.77 "HgN/A
12:30 PM99 °FScattered clouds.6 mph47%29.77 "HgN/A
11:30 AM97 °FScattered clouds.10 mph50%29.77 "HgN/A
11:00 AM97 °FScattered clouds.10 mph50%29.77 "HgN/A
10:30 AM97 °FScattered clouds.10 mph50%29.80 "HgN/A
10:00 AM95 °FScattered clouds.8 mph60%29.80 "HgN/A
9:30 AM95 °FPassing clouds.8 mph56%29.80 "HgN/A
9:00 AM93 °FPassing clouds.6 mph63%29.80 "HgN/A
8:30 AM93 °FPassing clouds.3 mph67%29.80 "HgN/A
8:00 AM93 °FPassing clouds.6 mph67%29.80 "HgN/A
7:30 AM90 °FPassing clouds.6 mph75%29.80 "HgN/A
7:00 AM90 °FSunny.3 mph75%29.77 "Hg10 mi
6:30 AM90 °FSunny.1 mph75%29.77 "Hg10 mi
6:00 AM86 °FSunny.3 mph79%29.77 "Hg10 mi
5:30 AM86 °FSunny.3 mph79%29.77 "Hg10 mi
5:00 AM84 °FClear.3 mph84%29.74 "Hg10 mi
4:30 AM86 °FClear.6 mph79%29.74 "Hg10 mi
4:00 AM86 °FClear.6 mph79%29.74 "Hg10 mi
3:30 AM86 °FClear.6 mph79%29.74 "Hg10 mi
3:00 AM88 °FClear.3 mph75%29.74 "Hg10 mi
2:30 AM88 °FClear.3 mph75%29.74 "Hg10 mi
2:00 AM88 °FClear.6 mph75%29.74 "Hg10 mi
1:30 AM88 °FClear.8 mph75%29.74 "Hg10 mi
1:00 AM88 °FClear.8 mph75%29.74 "Hg10 mi
12:30 AM88 °FClear.10 mph75%29.77 "Hg10 mi
12:00 AM88 °FClear.8 mph75%29.77 "Hg10 mi
11:30 PM
Mon, Jul 27
90 °FPassing clouds.8 mph71%29.77 "HgN/A
11:00 PM90 °FClear.8 mph75%29.77 "Hg10 mi
10:30 PM90 °FPassing clouds.10 mph71%29.77 "HgN/A
10:00 PM91 °FClear.6 mph59%29.77 "Hg10 mi
9:30 PM91 °FClear.8 mph67%29.77 "Hg10 mi
9:00 PM93 °FClear.6 mph63%29.77 "Hg10 mi
8:30 PM93 °FClear.6 mph63%29.77 "Hg10 mi
8:00 PM93 °FClear.6 mph63%29.74 "Hg10 mi
7:30 PM95 °FClear.6 mph56%29.74 "Hg10 mi
7:00 PM95 °FPassing clouds.3 mph53%29.74 "HgN/A
6:30 PM95 °FScattered clouds.6 mph53%29.74 "HgN/A
6:00 PM97 °FScattered clouds.6 mph53%29.74 "HgN/A
Weather by CustomWeather, © 2015

See weather overviewHow to use our weather pages